Disclaimer

Please do not use the information listed here in-flight or in-navigation, as they are not provided to us by the airports but are provided by volunteers, so they might be outdated.

Search


Regions


Airport information page

No radio frequency information is available.

Airport informations:
Latitude: 24° 44' 39.51" N
Longitude: 084° 57' 04.23" E
Elevation: 380 feet - 116 meters
Operating hours: Remarks
Operating agency: Civil government, landing fees and diplomatic clearance may be required
Timezone: UTC+5:30
Fuel: Unknown fuel type or whether there is any fuel.

Runway information:
10/28 - 7500 x 148 feet< - >2286 x 45 meters

Recent METARs:
VEGY 151800Z 11007KT 1600 BR NSC 09/06 Q1019
VEGY 160000Z 11009KT 1400 BR NSC 04/03 Q1018
VEGY 160000Z 11009KT 1400 BR NSC 04/03 Q1018

Airport on the map: